FW9025 Weather Reports


time (UTC)temp
F
wind
direction
speed
knots
gust
knots
rain 1hr
in
rain 24hr
in
rain mn
in
humidity
%
barometer
mb
20260504185555 65 261 0.9 3.5 0.00 0.00 0.00 31 1011.2
20260504185054 65 25 0.9 4.3 0.00 0.00 0.00 32 1011.2
20260504184606 63 246 0.9 4.3 0.00 0.00 0.00 33 1011.4
20260504184054 62 359 0.9 8.7 0.00 0.00 0.00 33 1011.4
20260504183552 64 277 1.7 8.7 0.00 0.00 0.00 30 1011.5
20260504183054 65 63 1.7 7.8 0.00 0.00 0.00 30 1011.6
20260504182557 66 0 2.6 7.8 0.00 0.00 0.00 29 1011.5
20260504182054 65 228 2.6 7.0 0.00 0.00 0.00 30 1011.5
20260504181604 65 186 1.7 5.2 0.00 0.00 0.00 29 1011.6
20260504181051 64 292 0.9 5.2 0.00 0.00 0.00 33 1011.8
20260504180554 61 155 0.9 2.6 0.00 0.00 0.00 34 1011.7
20260504180100 60 0 0.0 2.6 0.00 0.00 0.00 36 1011.7
20260504175554 60 0 0.0 4.3 0.00 0.00 0.00 34 1011.9
20260504175054 62 0 0.9 4.3 0.00 0.00 0.00 34 1011.8
20260504174556 62 248 0.9 4.3 0.00 0.00 0.00 34 1011.9
20260504174055 62 0 0.9 6.1 0.00 0.00 0.00 32 1011.9
20260504173556 61 143 2.6 6.1 0.00 0.00 0.00 33 1012.0
20260504173104 60 100 0.9 2.6 0.00 0.00 0.00 38 1012.0
20260504172551 59 293 0.9 2.6 0.00 0.00 0.00 35 1012.1
20260504172059 58 332 0.9 2.6 0.00 0.00 0.00 39 1012.1
20260504171604 58 278 0.0 3.5 0.00 0.00 0.00 38 1012.1
20260504171052 58 0 0.9 5.2 0.00 0.00 0.00 36 1012.1
20260504170554 58 130 0.0 6.1 0.00 0.00 0.00 40 1012.2
20260504151050 49 141 0.9 4.3 0.00 0.00 0.00 55 1013.0
20260504150553 50 106 1.7 4.3 0.00 0.00 0.00 57 1013.2
20260504141056 41 135 0.9 3.5 0.00 0.00 0.00 71 1013.5
20260504140552 39 118 0.9 3.5 0.00 0.00 0.00 76 1013.5
20260504140106 38 0 0.0 0.9 0.00 0.00 0.00 77 1013.6
20260504130553 29 0 0.0 0.0 0.00 0.00 0.00 85 1013.5
20260504110551 31 0 0.0 0.9 0.00 0.00 0.00 82 1013.6
20260504100551 32 0 0.0 0.0 0.00 0.00 0.00 79 1013.4
20260504081556 35 0 0.0 0.0 0.00 0.00 0.00 75 1013.7
20260504081053 35 0 0.0 0.9 0.00 0.00 0.00 77 1013.8
20260504080552 34 0 0.0 0.9 0.00 0.00 0.00 78 1013.9
20260504060105 38 0 0.0 0.0 0.00 0.00 0.00 72 1014.0
20260504050550 41 0 0.0 0.0 0.00 0.00 0.00 66 1014.3
20260504045552 41 0 0.0 0.9 0.00 0.00 0.00 65 1014.3
20260504045052 41 0 0.0 0.9 0.00 0.00 0.00 66 1014.3
20260504044555 40 0 0.0 0.9 0.00 0.00 0.00 66 1014.4
20260504044053 40 0 0.0 0.0 0.00 0.00 0.00 67 1014.3
20260504043555 41 0 0.0 0.0 0.00 0.00 0.00 66 1014.4
20260504043058 41 0 0.0 0.0 0.00 0.00 0.00 66 1014.3
20260504042554 42 0 0.0 0.0 0.00 0.00 0.00 65 1014.3
20260504042056 42 0 0.0 0.0 0.00 0.00 0.00 65 1014.4
20260504041559 41 0 0.0 0.0 0.00 0.00 0.00 65 1014.5
20260504041053 41 0 0.0 0.0 0.00 0.00 0.00 64 1014.4
20260504040553 42 0 0.0 0.9 0.00 0.00 0.00 65 1014.4
20260504040105 43 0 0.0 0.9 0.00 0.00 0.00 62 1014.4
20260504035553 43 0 0.0 0.9 0.00 0.00 0.00 64 1014.4
20260504035053 42 28 0.0 1.7 0.00 0.00 0.00 65 1014.5
20260504034606 42 28 0.0 1.7 0.00 0.00 0.00 62 1014.4
20260504034052 43 20 0.0 0.9 0.00 0.00 0.00 62 1014.3
20260504033553 43 0 0.0 0.9 0.00 0.00 0.00 61 1014.3
20260504033102 44 0 0.0 0.9 0.00 0.00 0.00 61 1014.2
20260504032553 45 0 0.0 0.0 0.00 0.00 0.00 60 1014.1
20260504032053 45 0 0.0 0.0 0.00 0.00 0.00 59 1014.2
20260504031605 44 0 0.0 0.0 0.00 0.00 0.00 59 1014.1
20260504031052 46 0 0.0 0.0 0.00 0.00 0.00 57 1014.1
20260504030553 46 0 0.0 1.7 0.00 0.00 0.00 57 1014.1
20260504030114 47 0 0.0 1.7 0.00 0.00 0.00 56 1014.1
20260504025553 47 0 0.0 1.7 0.00 0.00 0.00 54 1014.0
20260504025055 48 0 0.0 0.9 0.00 0.00 0.00 52 1014.0
20260504024556 47 0 0.0 0.0 0.00 0.00 0.00 51 1013.9
20260504024055 48 0 0.0 0.0 0.00 0.00 0.00 49 1013.9
20260504023553 49 0 0.0 0.0 0.00 0.00 0.00 48 1013.9
20260504023054 50 0 0.0 0.9 0.00 0.00 0.00 47 1013.9
20260504022552 50 0 0.0 0.9 0.00 0.00 0.00 44 1013.8
20260504022054 51 0 0.0 0.9 0.00 0.00 0.00 47 1013.7
20260504021603 52 0 0.0 0.9 0.00 0.00 0.00 45 1013.7
20260504021054 52 0 0.0 0.9 0.00 0.00 0.00 44 1013.7
20260504020552 53 0 0.0 0.9 0.00 0.00 0.00 43 1013.8
20260504020053 54 0 0.0 0.9 0.00 0.00 0.00 41 1013.8
20260504015554 54 0 0.0 0.9 0.00 0.00 0.00 40 1013.7
20260504015054 55 0 0.0 0.9 0.00 0.00 0.00 39 1013.7
20260504014554 55 0 0.0 0.9 0.00 0.00 0.00 40 1013.8
20260504014053 55 0 0.0 0.9 0.00 0.00 0.00 36 1013.8
20260504013553 56 0 0.0 1.7 0.00 0.00 0.00 38 1013.9
20260504013050 56 0 0.0 1.7 0.00 0.00 0.00 37 1013.9
20260504012555 56 357 0.0 1.7 0.00 0.00 0.00 36 1013.9
20260504012053 56 0 0.0 0.9 0.00 0.00 0.00 37 1013.9
20260504011556 56 0 0.0 0.9 0.00 0.00 0.00 35 1014.1
20260504011051 57 0 0.0 0.0 0.00 0.00 0.00 33 1014.0
20260504010553 58 0 0.0 0.9 0.00 0.00 0.00 32 1014.0
20260504010054 58 0 0.0 0.9 0.00 0.00 0.00 32 1014.1
20260504005553 59 0 0.0 1.7 0.00 0.00 0.00 32 1014.0
20260504005053 59 332 0.0 2.6 0.00 0.00 0.00 29 1014.2
20260504004557 60 109 0.0 2.6 0.00 0.00 0.00 27 1014.0
20260504004054 60 0 0.0 2.6 0.00 0.00 0.00 28 1014.1
20260504003552 61 0 0.0 2.6 0.00 0.00 0.00 28 1014.1
20260504003053 61 0 0.9 2.6 0.00 0.00 0.00 24 1014.2
20260504002553 61 90 0.0 4.3 0.00 0.00 0.00 27 1014.1
20260504002053 61 0 0.9 4.3 0.00 0.00 0.00 25 1014.2
20260504001553 62 3 0.9 4.3 0.00 0.00 0.00 24 1014.1
20260504001053 62 0 0.9 4.3 0.00 0.00 0.00 25 1014.2
20260504000553 62 340 1.7 4.3 0.00 0.00 0.00 25 1014.3
20260504000136 62 8 0.9 2.6 0.00 0.00 0.00 24 1014.3
20260503235553 62 282 0.9 3.5 0.00 0.00 0.00 21 1014.3
20260503235053 62 340 0.9 5.2 0.00 0.00 0.00 23 1014.3
20260503234554 63 20 1.7 5.2 0.00 0.00 0.00 23 1014.5
20260503234054 63 340 1.7 5.2 0.00 0.00 0.00 23 1014.3
20260503233553 64 309 0.0 6.1 0.00 0.00 0.00 24 1014.4
20260503233054 64 310 1.7 6.1 0.00 0.00 0.00 22 1014.5
20260503232556 64 236 0.9 7.0 0.00 0.00 0.00 23 1014.3
20260503232053 63 357 1.7 7.8 0.00 0.00 0.00 22 1014.5
20260503231558 64 0 1.7 7.8 0.00 0.00 0.00 22 1014.5
20260503231054 64 190 0.9 6.1 0.00 0.00 0.00 21 1014.4
20260503230553 64 9 0.9 6.1 0.00 0.00 0.00 21 1014.5
20260503230055 64 95 0.9 6.1 0.00 0.00 0.00 21 1014.6
20260503225552 65 256 1.7 6.1 0.00 0.00 0.00 23 1014.7
20260503225053 65 0 0.9 13.0 0.00 0.00 0.00 20 1014.7
20260503224553 64 244 2.6 13.0 0.00 0.00 0.00 24 1014.7
20260503224053 64 262 1.7 7.0 0.00 0.00 0.00 21 1014.7
20260503223553 65 197 0.9 4.3 0.00 0.00 0.00 23 1014.7
20260503223054 65 209 0.9 4.3 0.00 0.00 0.00 22 1014.8
20260503222552 66 288 0.9 3.5 0.00 0.00 0.00 23 1014.8
20260503222053 66 209 1.7 4.3 0.00 0.00 0.00 24 1014.9
20260503221554 66 305 0.9 4.3 0.00 0.00 0.00 23 1015.0
20260503221058 65 291 1.7 4.3 0.00 0.00 0.00 24 1015.0
20260503220554 64 168 0.9 6.1 0.00 0.00 0.00 23 1015.0
20260503220056 66 308 1.7 6.1 0.00 0.00 0.00 23 1015.1
20260503215554 66 10 1.7 6.1 0.00 0.00 0.00 24 1015.2
20260503215053 67 291 1.7 6.1 0.00 0.00 0.00 24 1015.2
20260503214552 67 317 0.9 5.2 0.00 0.00 0.00 21 1015.2
20260503214056 67 10 0.0 5.2 0.00 0.00 0.00 22 1015.4
20260503213554 66 292 1.7 5.2 0.00 0.00 0.00 22 1015.4
20260503213054 65 54 0.9 6.1 0.00 0.00 0.00 22 1015.5
20260503212550 67 236 1.7 6.1 0.00 0.00 0.00 19 1015.5
20260503212054 68 221 0.9 4.3 0.00 0.00 0.00 19 1015.6
20260503211601 68 340 2.6 5.2 0.00 0.00 0.00 22 1015.6
20260503211053 68 307 0.9 5.2 0.00 0.00 0.00 21 1015.6
20260503210554 68 158 1.7 5.2 0.00 0.00 0.00 20 1015.8
20260503210053 68 47 0.9 3.5 0.00 0.00 0.00 23 1015.7
20260503205554 67 298 0.9 3.5 0.00 0.00 0.00 24 1015.9
20260503205054 66 286 0.9 4.3 0.00 0.00 0.00 23 1016.1
20260503204558 65 0 0.9 4.3 0.00 0.00 0.00 24 1016.1
20260503204053 66 209 0.9 3.5 0.00 0.00 0.00 23 1016.1
20260503203557 69 266 0.9 5.2 0.00 0.00 0.00 21 1016.2
20260503203057 68 272 0.9 5.2 0.00 0.00 0.00 20 1016.2
20260503202553 67 307 0.9 4.3 0.00 0.00 0.00 25 1016.2
20260503202056 65 324 0.9 4.3 0.00 0.00 0.00 24 1016.3
20260503201551 67 27 1.7 4.3 0.00 0.00 0.00 25 1016.3
20260503201058 67 299 1.7 7.8 0.00 0.00 0.00 23 1016.4
20260503200553 67 321 1.7 7.8 0.00 0.00 0.00 22 1016.4
20260503200055 67 301 1.7 6.1 0.00 0.00 0.00 25 1016.5
20260503195554 69 286 1.7 7.0 0.00 0.00 0.00 23 1016.5
20260503195054 70 222 0.9 7.0 0.00 0.00 0.00 22 1016.5
20260503194555 70 326 1.7 6.1 0.00 0.00 0.00 24 1016.6
20260503194054 70 0 0.9 6.1 0.00 0.00 0.00 25 1016.6
20260503193554 70 272 0.9 6.1 0.00 0.00 0.00 23 1016.7
20260503193052 69 241 1.7 6.1 0.00 0.00 0.00 24 1016.8
20260503192553 67 18 0.9 4.3 0.00 0.00 0.00 26 1016.8
20260503192053 67 170 0.9 6.1 0.00 0.00 0.00 23 1016.8
20260503191554 68 0 0.9 6.1 0.00 0.00 0.00 23 1017.1
20260503191058 68 251 1.7 6.1 0.00 0.00 0.00 24 1017.2
20260503190553 70 353 1.7 3.5 0.00 0.00 0.00 23 1017.3
20260503190054 68 332 0.9 3.5 0.00 0.00 0.00 25 1017.2